EW5526 Weather Reports


time (UTC)temp
C
wind
direction
speed
KPH
gust
KPH
rain 1hr
cm
rain 24hr
cm
rain mn
cm
humidity
%
barometer
mb
20260508063045 18 265 3.2 3.2 0.00 0.00 0.00 64 1012.6
20260508053044 16 267 0.0 0.0 0.00 0.00 0.00 68 1011.8
20260508050043 16 267 0.0 4.8 0.00 0.00 0.00 67 1011.5
20260508043042 16 258 4.8 4.8 0.00 0.00 0.00 61 1011.5
20260508040042 16 258 0.0 1.6 0.00 0.00 0.00 55 1011.2
20260508030041 16 258 0.0 0.0 0.00 0.00 0.00 52 1010.6
20260508020039 16 258 3.2 6.4 0.00 0.00 0.00 52 1010.4
20260508010039 16 254 0.0 4.8 0.00 0.00 0.00 59 1010.8
20260508003038 16 254 1.6 4.8 0.00 0.00 0.00 60 1010.6
20260508000037 16 254 1.6 4.8 0.00 0.00 0.00 64 1010.7
20260507233037 15 255 0.0 1.6 0.00 0.00 0.00 68 1010.9
20260507230036 16 242 6.4 6.4 0.00 0.00 0.00 69 1011.6
20260507223035 17 227 3.2 4.8 0.00 0.00 0.00 64 1012.0
20260507220035 17 221 4.8 4.8 0.00 0.00 0.00 65 1012.4
20260507210034 17 245 4.8 8.0 0.00 0.00 0.00 59 1011.3
20260507203034 17 239 0.0 3.2 0.00 0.00 0.00 59 1010.9
20260507200033 18 232 0.0 1.6 0.00 0.00 0.00 60 1011.0
20260507193032 18 219 1.6 3.2 0.00 0.00 0.00 61 1010.9
20260507190032 18 215 3.2 6.4 0.00 0.00 0.00 61 1010.6
20260507183031 18 202 3.2 4.8 0.00 0.00 0.00 62 1010.2
20260507180031 19 203 8.0 8.0 0.00 0.00 0.00 61 1010.2
20260507173030 20 216 4.8 9.7 0.00 0.00 0.00 58 1010.0
20260507163029 21 197 4.8 8.0 0.00 0.00 0.00 50 1009.7
20260507150027 22 284 11.3 11.3 0.00 0.00 0.00 46 1009.3
20260507143027 23 213 4.8 6.4 0.00 0.00 0.00 45 1010.1
20260507140027 24 220 16.1 17.7 0.00 0.00 0.00 46 1010.1
20260507120025 22 319 1.6 6.4 0.00 0.00 0.00 48 1010.2
20260507113024 22 315 3.2 8.0 0.00 0.00 0.00 47 1010.4
20260507110024 22 360 8.0 12.9 0.00 0.00 0.00 49 1010.5
20260507103024 22 146 3.2 8.0 0.00 0.00 0.00 49 1011.0
20260507100023 23 90 1.6 8.0 0.00 0.00 0.00 46 1011.0
20260507093022 22 16 3.2 11.3 0.00 0.00 0.00 46 1010.6
20260507090021 22 74 4.8 6.4 0.00 0.00 0.00 44 1010.8
20260507083021 22 90 4.8 14.5 0.00 0.00 0.00 45 1010.8
20260507080020 21 355 1.6 4.8 0.00 0.00 0.00 46 1010.5
20260507073020 20 341 4.8 12.9 0.00 0.00 0.00 46 1010.7
20260507070019 20 26 4.8 8.0 0.00 0.00 0.00 46 1011.0